Theta_e
317 317 316 318 328 329 338 341 343 344 343 342 344 343 343 343 342 342 341 334 328 327 326 324 316 309 306 301 300 299 299 298 297 297 296 297 296 296 295 295 295 295 295
317 317 316 316 320 331 332 340 341 342 342 341 342 343 343 340 340 339 336 329 327 326 321 316 308 305 300 299 299 298 298 297 297 297 296 296 295 294 294 295 295 294 294
318 319 318 318 320 328 333 339 341 341 341 341 342 343 342 340 336 332 330 327 324 322 314 307 304 300 299 298 298 297 297 297 297 296 295 294 294 295 295 295 294 294 294
319 320 320 320 324 328 336 338 341 340 339 343 342 342 340 338 331 326 327 328 327 312 305 301 299 299 298 297 297 296 296 296 295 295 295 294 295 294 294 294 294 294 293
319 320 320 319 322 330 336 342 340 341 342 340 340 339 334 330 328 329 326 323 316 305 300 299 298 297 297 296 296 296 295 295 295 295 294 294 294 294 293 293 293 292 293
319 319 322 323 326 327 337 335 339 338 339 337 339 337 330 326 322 328 327 320 304 301 299 298 297 296 296 295 295 295 295 294 294 294 294 293 293 293 292 292 292 291 291
319 319 321 329 325 328 337 335 337 335 337 339 336 331 329 327 326 324 320 303 299 298 298 297 297 296 295 295 295 294 294 294 294 293 293 292 292 292 291 291 291 291 292
319 320 321 327 328 328 334 334 333 334 334 331 329 328 327 328 325 317 303 299 297 296 296 296 296 295 294 294 294 294 294 294 293 293 292 291 291 290 290 290 290 291 293
319 321 323 326 326 327 332 332 333 333 331 326 323 326 323 319 319 306 297 296 297 296 295 295 294 294 294 293 293 293 293 293 292 291 291 291 290 290 290 290 290 291 293
319 321 324 325 325 329 332 332 328 331 324 324 320 320 319 318 309 297 297 297 296 295 294 294 293 294 293 293 293 293 293 292 291 291 291 291 291 290 290 289 290 291 293
319 323 324 326 327 330 329 326 321 325 324 321 321 320 313 302 295 296 296 297 296 295 295 294 294 293 293 293 293 292 292 291 291 291 291 291 291 290 290 290 289 292 294
324 323 324 325 326 324 325 322 322 323 323 321 313 303 295 294 294 295 295 296 295 295 294 293 292 293 292 292 292 291 291 291 291 291 291 291 290 290 290 290 289 292 295
321 321 320 318 318 321 320 313 309 318 314 309 299 293 293 294 294 295 295 295 295 294 293 293 292 292 291 292 291 291 291 291 291 291 290 289 289 289 289 290 289 291 295
315 316 314 312 308 310 315 307 309 319 311 295 293 293 294 294 294 294 294 294 293 293 293 292 291 291 291 291 291 291 291 291 291 289 289 289 289 289 289 289 289 290 294
307 310 311 312 313 309 311 311 310 302 306 297 295 294 295 294 295 295 295 294 294 293 293 291 291 291 291 290 291 291 291 290 289 289 290 289 289 288 288 288 288 290 293
305 307 312 321 316 310 304 299 301 300 299 297 295 295 295 295 295 294 294 293 293 292 292 292 291 291 290 291 291 290 290 289 289 289 289 288 288 288 288 288 288 289 293
319 318 313 314 306 308 307 305 301 297 295 295 295 295 295 295 294 293 293 292 292 292 293 292 290 290 291 290 290 290 289 289 289 288 288 287 287 287 287 287 287 289 293
310 311 313 310 307 304 301 299 296 295 295 295 295 295 294 294 293 292 292 292 292 292 291 290 291 290 290 290 289 289 289 289 288 288 287 287 287 286 287 287 287 289 292
312 310 307 303 301 300 299 297 295 295 295 294 294 294 293 293 292 292 292 292 291 290 290 291 290 290 289 289 289 289 288 288 288 287 287 286 286 286 286 286 287 288 292
308 303 301 300 300 298 295 295 295 295 295 294 293 293 292 292 292 292 291 291 291 290 290 290 290 290 289 288 288 288 288 288 288 287 286 286 285 286 286 286 286 287 291
299 299 299 297 295 295 295 295 295 295 294 293 293 293 292 292 291 291 291 290 290 290 290 290 289 289 288 288 288 288 288 288 288 287 286 285 285 285 285 286 286 286 290
297 296 295 296 295 295 295 295 294 294 293 293 293 292 292 291 291 291 291 290 291 291 290 289 289 288 288 288 288 288 288 288 287 286 286 285 285 285 285 286 286 286 288
298 297 296 295 294 294 294 294 294 294 294 293 292 292 291 291 291 291 291 291 290 290 289 289 289 289 288 288 288 288 288 288 287 286 286 285 285 285 285 285 286 286 286
298 296 294 294 294 294 294 294 294 293 293 292 292 291 291 292 292 292 292 291 290 290 289 289 289 288 288 288 288 287 287 287 287 286 285 285 285 285 285 285 285 286 286
294 293 294 294 294 294 294 294 293 293 292 292 292 292 292 293 293 292 291 291 290 290 289 289 288 288 288 287 287 287 287 287 286 286 285 285 284 285 285 285 285 285 286
294 294 294 294 294 294 294 294 293 293 292 292 292 293 293 293 293 293 292 291 290 290 289 289 288 288 287 287 287 286 286 286 286 286 285 284 284 284 284 285 285 285 285
Wind_Speed
28 30 35 40 45 44 48 51 52 47 43 40 41 44 44 37 37 33 29 29 24 19 14 12 10 5 4 4 2 3 5 6 6 9 11 14 17 20 21 21 22 23 24
28 31 36 38 40 45 44 47 48 45 42 43 41 42 46 39 40 38 40 29 22 17 15 12 6 4 2 1 2 3 5 6 7 10 12 16 19 21 23 23 22 22 24
30 29 34 41 43 44 40 42 40 43 38 41 39 42 48 45 41 39 33 26 20 14 13 10 7 5 2 1 3 5 7 8 10 12 16 18 21 22 24 25 26 26 25
26 26 27 38 43 43 40 36 40 41 40 40 41 45 49 45 40 35 26 24 19 17 14 10 8 6 4 3 4 5 7 9 11 14 16 20 22 24 27 33 35 31 28
26 23 29 38 40 44 40 38 39 39 39 44 42 46 45 42 38 31 26 19 19 20 15 12 9 8 5 6 6 7 8 10 13 16 18 20 24 29 32 33 36 39 33
31 24 31 35 42 41 42 36 40 44 43 41 45 45 43 37 32 26 23 17 19 17 15 12 10 10 9 8 8 9 12 14 17 18 20 22 24 28 30 33 36 42 35
30 30 33 34 43 43 44 42 47 45 45 41 45 45 43 36 26 18 18 21 20 18 15 14 13 12 9 8 10 12 14 16 18 20 20 23 26 28 30 33 33 33 33
33 33 33 33 39 43 46 48 50 51 50 49 49 44 38 33 28 25 25 24 23 20 17 16 14 12 10 9 9 11 12 15 18 19 19 21 22 24 26 29 31 32 32
36 34 26 32 41 43 50 57 50 49 52 58 57 50 39 37 35 30 30 28 25 22 20 18 15 13 12 10 9 11 13 15 16 17 17 16 18 23 26 27 31 36 38
40 32 32 41 41 48 54 56 58 52 56 55 51 45 43 39 32 33 28 26 27 25 22 20 17 14 12 12 10 11 12 15 14 15 15 17 21 24 26 28 29 33 33
30 31 44 47 55 57 58 56 63 60 63 56 51 45 41 39 36 30 26 26 26 25 23 22 19 16 13 12 11 13 17 16 16 18 20 22 25 28 28 28 27 28 28
44 51 57 60 56 54 55 55 71 70 63 56 50 49 43 39 34 29 26 23 24 24 24 22 20 16 13 14 14 15 15 16 18 23 24 28 31 32 29 27 27 24 22
64 64 62 59 57 54 52 66 68 69 65 60 59 53 46 40 35 29 27 27 24 24 24 21 19 17 14 15 13 14 16 21 25 27 29 30 31 30 30 30 29 26 24
67 65 63 62 59 60 65 63 68 66 63 60 57 54 49 42 38 34 31 27 25 25 23 20 18 16 15 15 14 18 23 25 26 27 28 30 30 32 32 34 35 36 36
65 67 64 69 68 68 62 58 60 56 58 58 54 52 50 43 36 30 29 27 24 22 22 20 18 16 14 16 19 21 23 24 27 28 32 32 32 33 33 35 35 36 36
69 67 71 69 63 62 62 57 53 54 49 49 48 46 42 39 34 29 26 24 22 20 21 20 17 16 18 21 20 23 23 26 28 31 31 31 33 34 34 36 37 36 36
74 67 66 66 61 59 58 58 56 47 46 44 42 41 40 37 30 29 27 25 21 17 18 19 19 18 20 20 21 21 24 26 28 29 30 31 32 32 35 37 38 37 36
60 60 62 62 60 58 57 58 57 55 52 45 38 37 34 31 28 27 25 24 23 19 20 20 20 19 19 20 20 22 24 25 26 28 29 30 30 32 34 36 37 37 35
58 59 60 59 59 61 60 57 54 53 52 48 42 35 30 28 27 25 22 21 23 23 21 20 19 19 19 19 20 22 23 24 26 28 28 28 29 30 32 33 34 35 35
55 56 57 57 56 55 54 54 53 51 48 44 40 37 31 29 28 25 22 22 23 22 20 19 19 18 17 19 20 21 21 23 26 26 27 27 27 28 30 31 34 36 35
53 53 53 54 54 53 53 51 50 48 44 40 36 31 29 29 28 25 24 22 21 20 19 18 17 17 19 18 19 20 21 23 24 25 25 26 27 27 28 29 32 34 34
49 48 49 50 49 49 48 47 45 43 40 38 34 29 27 27 26 24 22 21 19 18 17 16 16 18 18 17 17 18 20 22 23 24 25 26 26 26 27 28 31 32 33
41 43 45 46 45 45 44 42 40 38 36 34 32 31 27 26 24 22 21 20 18 17 17 16 18 18 16 16 17 18 19 21 23 25 25 25 25 25 25 27 29 31 32
42 43 45 45 44 42 40 39 36 34 33 32 30 29 26 25 23 20 19 18 17 17 16 16 17 17 16 15 15 16 17 20 22 23 24 23 23 22 22 24 27 29 31
42 43 43 42 40 39 37 35 34 32 30 28 27 26 25 24 21 19 18 16 16 15 15 15 16 16 15 14 13 14 17 19 21 22 23 22 21 20 20 22 24 27 29
36 37 37 37 36 34 33 32 31 29 28 26 25 23 23 22 19 17 16 14 13 13 13 14 14 13 12 12 13 14 16 18 20 22 22 21 20 20 19 21 23 25 28
Wind_Direction
244 240 235 236 239 239 234 232 234 235 236 232 225 214 212 214 207 214 215 209 197 198 203 216 209 218 248 259 300 332 332 344 339 330 335 338 334 337 337 343 345 344 342
246 248 236 231 233 237 234 234 230 228 236 240 226 216 211 210 218 211 205 194 189 191 197 198 194 203 217 260 355 351 353 355 356 348 346 347 345 343 346 348 356 355 348
252 252 242 233 228 232 230 227 224 223 228 227 224 213 209 207 195 190 187 177 179 183 185 180 178 156 122 51 22 13 8 6 5 360 355 348 348 350 353 352 356 2 355
258 256 243 230 229 227 222 222 219 215 220 209 207 202 192 189 183 165 170 176 171 172 170 163 154 124 101 67 35 28 25 11 9 3 358 353 353 355 358 355 354 4 360
263 263 232 224 227 221 211 206 209 201 209 199 201 194 186 181 178 168 178 162 162 165 159 155 137 115 96 75 58 38 32 17 11 6 3 358 360 360 1 358 351 354 4
258 253 230 222 224 213 201 193 195 190 195 197 192 191 170 166 162 156 149 158 165 156 153 140 127 103 90 81 61 41 32 22 14 9 7 3 3 1 358 358 353 355 357
257 244 234 220 215 201 188 180 181 185 187 191 187 181 163 155 154 139 140 159 156 146 136 127 109 100 85 60 45 32 28 21 16 16 5 5 4 360 356 354 355 351 356
243 252 233 214 197 191 182 174 178 179 180 175 164 157 153 149 152 148 157 163 145 134 124 113 106 103 90 60 44 38 30 24 22 17 11 6 1 358 359 352 349 353 0
235 244 228 197 191 183 178 170 178 178 173 160 150 146 144 147 144 153 164 150 138 130 121 112 109 103 91 76 51 41 35 31 25 22 17 10 6 2 359 357 358 4 360
227 241 200 192 181 184 175 174 169 167 153 148 142 142 140 137 141 160 161 146 135 128 122 115 108 94 88 74 53 48 47 45 38 32 23 20 17 12 10 9 4 7 1
222 203 186 177 172 170 167 169 159 150 145 143 141 141 138 138 151 150 147 139 132 126 120 111 103 93 80 70 59 50 46 41 32 29 25 21 19 20 16 13 13 8 3
161 159 157 157 160 161 161 156 149 147 140 140 136 131 137 143 140 139 134 127 125 122 113 106 95 89 78 70 55 51 47 40 32 30 24 22 21 17 16 15 17 19 15
147 147 147 147 150 157 159 149 141 137 135 135 134 137 138 136 133 132 127 123 123 116 107 102 98 88 77 67 58 53 47 40 33 28 28 26 21 15 13 16 17 20 27
135 137 139 138 133 139 143 140 133 139 138 136 137 138 137 136 134 132 129 129 123 112 107 104 97 91 78 68 60 51 43 36 31 30 28 25 21 17 17 16 16 13 19
120 126 132 138 135 130 135 138 135 130 138 143 142 139 137 137 134 130 127 124 119 114 113 104 95 86 81 73 57 47 41 37 33 28 26 23 21 18 17 17 18 18 19
118 121 126 132 139 139 136 123 126 130 136 139 136 131 126 124 127 124 121 118 117 116 108 99 97 88 76 60 52 45 38 34 29 27 24 22 21 17 17 19 20 20 19
122 126 131 138 134 128 122 121 126 131 126 120 123 125 123 123 128 127 126 123 114 112 106 100 90 77 65 57 50 43 39 32 27 25 25 23 21 17 19 20 19 19 20
124 127 125 126 125 123 123 125 127 125 122 121 121 122 122 126 128 126 124 118 120 114 102 91 80 71 64 56 50 43 38 30 26 24 24 23 20 18 20 23 20 19 18
123 123 124 125 127 129 130 130 128 127 125 125 125 122 124 127 120 116 118 120 114 104 93 85 77 69 62 54 47 40 34 28 25 22 22 21 19 17 22 23 21 23 22
124 125 127 129 130 129 130 129 129 128 127 128 129 128 129 126 122 122 122 111 106 97 89 80 72 66 59 53 45 39 32 27 24 21 20 20 20 19 20 22 22 23 22
129 131 131 130 130 131 132 132 131 130 130 128 124 124 124 124 125 119 113 107 101 95 82 73 69 63 59 50 43 37 30 28 22 19 19 19 19 19 20 21 25 24 25
130 131 131 129 131 132 131 130 129 126 125 123 123 126 130 126 118 113 110 106 100 92 84 74 69 61 54 46 40 34 29 25 20 19 19 19 18 17 19 20 23 25 25
131 132 131 130 129 128 126 126 126 126 127 127 131 133 131 123 118 113 108 101 100 96 85 72 62 56 50 43 35 30 25 22 19 17 16 18 17 17 18 20 20 23 26
132 132 131 129 129 128 129 130 130 129 130 131 131 128 124 120 117 111 108 107 99 89 80 68 59 51 43 37 31 26 22 20 18 15 15 15 15 15 17 20 21 21 23
131 131 130 130 130 129 130 130 131 130 128 127 125 124 126 123 118 112 109 102 94 82 75 64 53 45 37 30 26 23 21 18 15 15 15 14 13 14 16 18 20 21 23
128 128 129 129 128 128 128 128 127 128 129 128 128 125 122 123 118 109 105 100 89 77 67 55 46 39 31 28 25 22 18 15 13 13 13 12 12 13 14 16 17 20 22